GW0053 Weather Reports


Display with metric or nautical units.
time (UTC)temp
F
wind
direction
speed
MPH
gust
MPH
rain 1hr
in
rain 24hr
in
rain mn
in
humidity
%
barometer
mb
20260505123042 59 205 6.0 15.0 0.00 0.01 0.00 66 1006.9
20260505121539 57 209 8.0 16.0 0.00 0.01 0.00 69 1007.0
20260505120049 55 193 6.0 11.0 0.00 0.01 0.00 73 1007.1
20260505114544 54 205 3.0 9.0 0.00 0.01 0.00 72 1007.0
20260505113041 53 178 2.0 7.0 0.00 0.01 0.00 74 1007.0
20260505111537 51 164 2.0 6.0 0.00 0.01 0.00 77 1006.9
20260505101550 48 175 2.0 6.0 0.00 0.01 0.00 81 1007.0
20260505100039 47 188 1.0 5.0 0.00 0.01 0.00 83 1006.8
20260505094541 46 182 1.0 5.0 0.00 0.01 0.00 84 1006.7
20260505093037 46 160 2.0 5.0 0.00 0.01 0.00 85 1006.7
20260505091555 45 181 1.0 4.0 0.00 0.01 0.00 86 1006.8
20260505090042 45 184 2.0 5.0 0.00 0.01 0.00 86 1006.9
20260505084538 44 189 1.0 5.0 0.00 0.01 0.00 87 1006.9
20260505083037 45 175 1.0 5.0 0.00 0.01 0.00 86 1006.9
20260505081537 44 181 0.0 4.0 0.00 0.01 0.00 87 1006.9
20260505080036 44 0 1.0 4.0 0.00 0.01 0.00 86 1006.8
20260505074543 44 163 1.0 4.0 0.00 0.01 0.00 86 1006.9
20260505073050 44 186 1.0 4.0 0.00 0.01 0.00 85 1006.9
20260505071551 45 226 2.0 4.0 0.00 0.01 0.00 85 1007.0
20260505070039 44 191 1.0 5.0 0.00 0.01 0.00 86 1006.9
20260505064538 44 176 2.0 5.0 0.00 0.01 0.00 86 1006.9
20260505063035 45 194 2.0 7.0 0.00 0.01 0.00 85 1006.9
20260505061546 44 221 1.0 4.0 0.00 0.01 0.00 87 1006.9
20260505060047 44 184 1.0 4.0 0.00 0.01 0.00 87 1006.8
20260505054539 43 163 0.0 4.0 0.00 0.01 0.00 88 1006.9
20260505053038 43 101 2.0 7.0 0.00 0.01 0.00 89 1006.7
20260505051548 44 96 4.0 8.0 0.00 0.01 0.00 88 1006.8
20260505041538 46 77 5.0 7.0 0.00 0.01 0.00 86 1006.6
20260505040039 46 93 5.0 7.0 0.00 0.01 0.00 86 1006.8
20260505034535 47 89 5.0 9.0 0.00 0.01 0.01 84 1006.7
20260505033039 48 88 3.0 7.0 0.00 0.01 0.01 82 1006.8
20260505031539 48 86 3.0 7.0 0.00 0.01 0.01 83 1006.9
20260505030039 48 72 1.0 4.0 0.00 0.01 0.01 83 1007.0
20260505024536 48 93 1.0 6.0 0.00 0.01 0.01 82 1006.8
20260505023041 48 98 3.0 8.0 0.00 0.01 0.01 81 1007.0
20260505021538 48 111 2.0 7.0 0.00 0.01 0.01 80 1007.0
20260505020036 48 97 2.0 4.0 0.00 0.01 0.01 80 1007.0
20260505014536 49 77 1.0 2.0 0.00 0.01 0.01 79 1006.8
20260505013058 50 77 1.0 3.0 0.00 0.01 0.01 77 1006.5
20260505011541 50 77 2.0 4.0 0.00 0.01 0.01 77 1006.5
20260505010037 49 70 0.0 2.0 0.00 0.01 0.01 78 1006.4
20260505004537 50 70 1.0 3.0 0.00 0.01 0.01 76 1006.4
20260505003036 50 68 1.0 3.0 0.00 0.01 0.01 77 1006.1
20260505001536 51 0 0.0 0.0 0.00 0.01 0.01 77 1005.8
20260505000053 51 303 0.0 4.0 0.00 0.01 0.01 74 1005.7
20260504234539 51 319 1.0 4.0 0.00 0.01 0.01 73 1005.4
20260504233041 53 311 1.0 7.0 0.00 0.01 0.01 70 1005.1
20260504231536 54 306 2.0 6.0 0.00 0.01 0.01 66 1005.0
20260504230036 56 299 4.0 12.0 0.00 0.01 0.01 63 1004.8
20260504224535 56 298 4.0 14.0 0.00 0.01 0.01 62 1004.6
20260504223044 57 317 9.0 16.0 0.00 0.01 0.01 60 1004.6
20260504221545 57 320 7.0 15.0 0.00 0.01 0.01 61 1004.4
20260504220042 58 277 8.0 19.0 0.00 0.01 0.01 60 1004.3
20260504214542 57 316 7.0 16.0 0.00 0.01 0.01 62 1004.2
20260504213043 56 300 9.0 14.0 0.00 0.01 0.01 63 1004.2
20260504211539 56 284 6.0 12.0 0.00 0.01 0.01 67 1004.1
20260504210038 55 301 4.0 9.0 0.00 0.01 0.01 68 1004.1
20260504204536 56 280 7.0 18.0 0.00 0.03 0.01 65 1003.8
20260504203037 55 265 8.0 17.0 0.00 0.03 0.01 67 1003.6
20260504201539 56 312 8.0 15.0 0.00 0.03 0.01 67 1003.5
20260504200045 55 281 7.0 16.0 0.00 0.03 0.01 68 1003.5
20260504194537 55 282 6.0 17.0 0.00 0.06 0.01 69 1003.5
20260504193036 54 269 8.0 16.0 0.00 0.06 0.01 70 1003.5
20260504191542 54 256 8.0 17.0 0.00 0.06 0.01 70 1003.5
20260504190036 53 203 9.0 18.0 0.00 0.06 0.01 71 1003.6
20260504184553 53 261 8.0 19.0 0.00 0.12 0.01 72 1003.8
20260504183039 52 279 9.0 15.0 0.00 0.12 0.01 75 1003.9
20260504181538 50 311 4.0 10.0 0.00 0.12 0.01 83 1004.1
20260504180035 50 264 4.0 9.0 0.00 0.12 0.01 83 1004.2
20260504174539 50 286 4.0 10.0 0.01 0.18 0.01 83 1004.1
20260504173037 49 272 4.0 10.0 0.01 0.18 0.01 83 1004.0
20260504171536 49 292 5.0 10.0 0.01 0.18 0.01 84 1004.0